Location: Bletchingley
(51.2333°N, 0.1000°W)
Time: 14:55:31
(UTC+00:00)

Cosmos 2150 Rocket - Pass Details

Date: 18 September 2020
Orbit: 749 x 808 km, 74.0° (Epoch: 27 October)

Event Time Altitude Azimuth Distance (km) Brightness Sun altitude
Rises 20:27:54 0° 208° (SSW) 3,267 7.2 -21.7°
Reaches altitude 10° 20:30:17 10° 210° (SSW) 2,351 6.5 -22.0°
Maximum altitude 20:35:38 76° 296° (WNW) 829 4.2 -22.7°
Drops below altitude 10° 20:41:07 10° 22° (NNE) 2,397 6.7 -23.4°
Sets 20:43:34 0° 25° (NNE) 3,336 7.5 -23.7°
